Home > Weather > Zwolle > Past weeks

Flag for Netherlands Past Weather in Zwolle, Netherlands — Yesterday and Last 2 Weeks

Now
55 °F

Clear.


Feels Like: 54 °F
Forecast: 54 / 65 °F
Wind: 7 mph from Northeast

Location: Amsterdam Schiphol Airport

Current Time: May 27, 2016 at 2:27:25 AM

Latest Report: May 27, 2016 at 1:55 AM


Visibility: 4 mi

Pressure: 30.01 "Hg

Humidity: 88%

Dew Point: 52 °F

Location of ZwolleLocation

Past Weather in Zwolle — Graph

°F

Zwolle Temperature Yesterday

Maximum temperature yesterday: 64 °F (at 12:55 PM)
Minimum temperature yesterday: 45 °F (at 5:25 AM)
Average temperature yesterday: 56 °F

High & Low Weather Summary for the Past Weeks

 TemperatureHumidityPressure
High77 °F (May 12, 2:25 PM)100% (May 18, 11:25 PM)30.15 "Hg (May 18, 11:25 PM)
Low41 °F (May 16, 1:25 AM)34% (May 12, 4:55 PM)29.50 "Hg (May 12, 5:25 PM)
Average55 °F76%29.90 "Hg
* Reported May 12 12:25 AM — May 27 12:55 AM, Zwolle, Weather by CustomWeather, © 2016

Note: Actual official high and low records may vary slightly from our data, if they occured in-between our weather recording intervals... More about our weather records

Advertising

Zwolle Weather History for the Previous 24 Hours

Scroll right to see more
 ConditionsComfort  
Time TempWeatherWind HumidityBarometerVisibility
12:55 AM
Fri, May 27
55 °FClear.8 mph94%30.01 "Hg4 mi
12:25 AM55 °FClear.7 mph88%30.01 "Hg5 mi
11:55 PM
Thu, May 26
55 °FClear.7 mph88%30.01 "Hg6 mi
11:25 PM55 °FClear.8 mph82%30.04 "Hg10 mi
10:55 PM55 °FClear.6 mph82%30.04 "Hg10 mi
10:25 PM57 °FSunny.8 mph77%30.01 "Hg10 mi
9:55 PM57 °FPassing clouds.7 mph77%30.01 "HgN/A
9:25 PM59 °FPassing clouds.9 mph72%30.01 "HgN/A
8:55 PM59 °FPassing clouds.8 mph72%30.01 "HgN/A
8:25 PM61 °FPassing clouds.8 mph68%30.01 "HgN/A
7:55 PM61 °FPassing clouds.8 mph72%30.01 "HgN/A
7:25 PM63 °FPassing clouds.9 mph68%30.01 "HgN/A
6:55 PM63 °FPassing clouds.8 mph73%30.01 "HgN/A
6:25 PM63 °FPassing clouds.9 mph68%30.01 "HgN/A
5:55 PM63 °FPassing clouds.8 mph68%30.01 "HgN/A
5:25 PM64 °FPassing clouds.6 mph64%30.01 "HgN/A
4:55 PM64 °FPassing clouds.6 mph68%30.01 "HgN/A
4:25 PM63 °FPassing clouds.7 mph68%30.01 "HgN/A
3:55 PM64 °FPassing clouds.8 mph64%30.04 "HgN/A
3:25 PM63 °FPassing clouds.7 mph68%30.04 "HgN/A
2:55 PM63 °FPassing clouds.7 mph64%30.04 "HgN/A
2:25 PM63 °FPassing clouds.3 mph64%30.04 "HgN/A
1:25 PM63 °FPassing clouds.5 mph59%30.04 "HgN/A
12:55 PM64 °FPassing clouds.6 mph64%30.04 "HgN/A
12:25 PM63 °FPassing clouds.5 mph68%30.04 "HgN/A
11:55 AM61 °FPassing clouds.2 mph68%30.04 "HgN/A
11:25 AM61 °FPassing clouds.2 mph68%30.04 "HgN/A
10:55 AM57 °FPassing clouds.2 mph77%30.04 "HgN/A
10:25 AM57 °FPassing clouds.1 mph77%30.04 "HgN/A
9:55 AM55 °FScattered clouds.2 mph82%30.04 "HgN/A
9:25 AM54 °FScattered clouds.2 mph88%30.04 "HgN/A
8:55 AM54 °FScattered clouds.1 mph88%30.04 "HgN/A
8:25 AM52 °FScattered clouds.1 mph94%30.04 "HgN/A
7:55 AM52 °FPassing clouds.2 mph94%30.04 "Hg5 mi
7:25 AM50 °FPassing clouds.No wind100%30.04 "Hg6 mi
6:55 AM48 °FPassing clouds.1 mph100%30.04 "HgN/A
6:25 AM48 °FFog.2 mph94%30.01 "HgN/A
5:55 AM46 °FFog.2 mph93%30.01 "HgN/A
5:25 AM45 °FFog.2 mph100%30.01 "Hg5 mi
5:00 AM46 °FFog.1 mph100%30.01 "Hg5 mi
3:55 AM46 °FPassing clouds.1 mph100%30.01 "Hg6 mi
3:25 AM48 °FPassing clouds.1 mph100%30.01 "HgN/A
2:55 AM48 °FPassing clouds.2 mph100%30.01 "HgN/A
2:25 AM48 °FPassing clouds.2 mph94%30.01 "HgN/A
Weather by CustomWeather, © 2016

See weather overviewHow to use our weather pages